Saint Johns, AZ

4:06 AM MST on January 19, 2017 (GMT -0700)
Saint Johns Industrial

Weather History for KSJN - May, 2013

Change the Weather History Date:

Friday, May 3, 2013

  Actual Average (KLSB) Record (KLSB)
Temperature  
Mean Temperature 48 °F -  
Max Temperature 73 °F 82 °F 86 °F (2014)
Min Temperature 24 °F 42 °F 41 °F (2014)
Degree Days  
Heating Degree Days 16    
Moisture  
Dew Point 4 °F    
Average Humidity 14    
Maximum Humidity 30    
Minimum Humidity 4    
Precipitation  
Precipitation 0.00 in - - ()
Sea Level Pressure  
Sea Level Pressure 30.00 in    
Wind  
Wind Speed 5 mph (SW)    
Max Wind Speed 20 mph    
Max Gust Speed 26 mph    
Visibility 10 miles    
Events      
Averages and records for this station are not official NWS values.
T = Trace of Precipitation, MM = Missing Value Source: NWS Daily Summary

Daily Weather History Graph

Daily Weather History Graph

Search for Another Location

Airport or City:

Trip Planner

Search our weather history database for the weather conditions in past years. The results will help you decide how hot, cold, wet, or windy it might be!

Date:

Astronomy

May. 03, 2013 Rise Set
Actual Time 5:25 AM MST 7:04 PM MST
Civil Twilight 4:58 AM MST 7:31 PM MST
Nautical Twilight 4:25 AM MST 8:03 PM MST
Astronomical Twilight 3:51 AM MST 8:38 PM MST
Moon 1:35 AM MST (5/3) 1:16 PM MST (5/3)
Length of Visible Light 14h 33m
Length of Day
13h 38m
Waning Crescent, 36% of the Moon is Illuminated
May 3
Waning Crescent
May 9
New
May 17
First Quarter
May 24
Full
May 31
Last Quarter

Hourly Weather History & Observations

Time (MST) Temp. Windchill Dew Point Humidity Pressure Visibility Wind Dir Wind Speed Gust Speed Precip Events Conditions
12:54 AM 33.8 °F - -0.4 °F 23% 30.30 in 10.0 mi Calm Calm - N/A   Clear
1:54 AM 35.1 °F 32.2 °F -0.0 °F 23% 30.18 in 10.0 mi SSW 3.5 mph - N/A   Clear
2:54 AM 32.0 °F 28.7 °F 1.0 °F 27% 30.17 in 10.0 mi SSW 3.5 mph - N/A   Clear
3:54 AM 34.0 °F - -0.0 °F 24% 30.15 in 10.0 mi Calm Calm - N/A   Clear
4:54 AM 30.9 °F 27.5 °F 1.9 °F 29% 30.16 in 10.0 mi South 3.5 mph - N/A   Clear
5:54 AM 30.0 °F - 1.9 °F 30% 30.18 in 10.0 mi Calm Calm - N/A   Clear
6:54 AM 39.0 °F - 1.9 °F 21% 30.17 in 10.0 mi Calm Calm - N/A   Clear
7:54 AM 46.9 °F - 1.9 °F 16% 30.15 in 10.0 mi Variable 3.5 mph - N/A   Clear
8:54 AM 53.1 °F - 1.9 °F 12% 30.13 in 10.0 mi Calm Calm - N/A   Clear
9:54 AM 57.0 °F - 3.9 °F 12% 30.11 in 10.0 mi South 3.5 mph - N/A   Clear
10:54 AM 61.0 °F - 1.9 °F 9% 30.07 in 10.0 mi Variable 3.5 mph - N/A   Clear
11:54 AM 64.0 °F - 1.0 °F 8% 30.04 in 10.0 mi Calm Calm - N/A   Clear
12:54 PM 71.1 °F - 3.0 °F 7% 29.98 in 10.0 mi Variable 5.8 mph - N/A   Clear
1:54 PM 71.1 °F - 1.0 °F 6% 29.93 in 10.0 mi Variable 4.6 mph - N/A   Clear
2:54 PM 73.0 °F - 3.9 °F 7% 29.89 in 10.0 mi NW 8.1 mph - N/A   Clear
3:54 PM 73.9 °F - 7.0 °F 8% 29.85 in 10.0 mi NNW 6.9 mph 18.4 mph N/A   Clear
4:54 PM 73.9 °F - 9.0 °F 8% 29.84 in 10.0 mi NW 15.0 mph 19.6 mph N/A   Clear
5:34 PM 73.4 °F - 6.8 °F 8% 29.99 in 10.0 mi West 19.6 mph 25.3 mph N/A   Clear
5:54 PM 72.0 °F - 3.9 °F 7% 29.85 in 10.0 mi West 18.4 mph 26.5 mph N/A   Clear
6:54 PM 66.9 °F - 3.9 °F 8% 29.84 in 10.0 mi WSW 13.8 mph - N/A   Clear
7:54 PM 62.1 °F - 9.0 °F 12% 29.84 in 10.0 mi WSW 10.4 mph - N/A   Clear
8:54 PM 57.9 °F - 7.0 °F 13% 29.85 in 10.0 mi South 11.5 mph - N/A   Clear
9:54 PM 55.9 °F - 6.1 °F 14% 29.85 in 10.0 mi South 6.9 mph - N/A   Clear
10:54 PM 52.0 °F - 9.0 °F 18% 29.84 in 10.0 mi SSE 4.6 mph - N/A   Clear
11:54 PM 48.0 °F - 8.1 °F 20% 29.85 in 10.0 mi Calm Calm - N/A   Clear